Regional Weather Roundup
Issued by NWS

Home | Current Version | Previous Version | Graphics & Text | Print | Product List | Glossary On
Versions: 1 2 3 4 5 6 7 8 9 10 11 12 13 14 15 16 17 18 19 20 21 22 23 24 25 26 27 28 29 30 31 32 33 34 35 36 37 38 39 40 41 42 43 44 45 46 47 48 49 50
000
ASUS43 KOAX 211802
RWRNE

WEATHER ROUNDUP FOR NEBRASKA
NATIONAL WEATHER SERVICE OMAHA NE
100 PM CDT SUN MAY 21 2017

NOTES: SATELLITE DATA IS BEING USED TO AUGMENT CLOUD COVER ABOVE
       12000 FEET.
       "FAIR" INDICATES FEW OR NO CLOUDS BELOW 12,000 FEET WITH NO
       SIGNIFICANT WEATHER AND/OR OBSTRUCTIONS TO VISIBILITY.

  * THESE STATIONS DO NOT REPORT WEATHER SUCH AS RAIN...SNOW OR FOG.

NEZ001>004-019>022-054>056-211900-
NEBRASKA PANHANDLE

CITY           SKY/WX    TMP DP  RH WIND       PRES   REMARKS
SCOTTSBLUFF    CLOUDY    64  40  41 W10       30.15F
6HR MIN TEMP:  38; 6HR MAX TEMP:  65;

ALLIANCE       MOSUNNY   63  39  41 NW10      30.13F
6HR MIN TEMP:  32; 6HR MAX TEMP:  64;

CHADRON        CLOUDY    59  40  49 NW9       30.13S
6HR MIN TEMP:  38; 6HR MAX TEMP:  62;

KIMBALL        CLOUDY    60  35  39 W7        30.20F
SIDNEY         MOSUNNY   63  37  38 N7        30.18F
6HR MIN TEMP:  37; 6HR MAX TEMP:  63;

$$

NEZ057>060-069>072-079>082-211900-
SOUTHWEST NEBRASKA

CITY           SKY/WX    TMP DP  RH WIND       PRES   REMARKS
NORTH PLATTE   SUNNY     66  41  40 W10G21    30.14F
6HR MIN TEMP:  32; 6HR MAX TEMP:  66;

IMPERIAL       MOSUNNY   64  39  39 N14       30.16F
6HR MIN TEMP:  39; 6HR MAX TEMP:  67;

LEXINGTON      SUNNY     64  40  40 NW12G21   30.14F
MCCOOK         SUNNY     68  45  43 W15       30.15F
6HR MIN TEMP:  38; 6HR MAX TEMP:  68;

OGALLALA       MOSUNNY   66  41  39 NW12G17   30.16S
$$

NEZ005>010-023>029-035>040-094-211900-
NORTH CENTRAL NEBRASKA

CITY           SKY/WX    TMP DP  RH WIND       PRES   REMARKS
VALENTINE      SUNNY     66  32  28 NW13G25   30.09S
6HR MIN TEMP:  35; 6HR MAX TEMP:  66;

AINSWORTH      SUNNY     61  35  37 NW14G20   30.10S
BROKEN BOW     SUNNY     63  40  42 W16       30.12S
6HR MIN TEMP:  38; 6HR MAX TEMP:  63;

O`NEILL        SUNNY     58  39  48 NW18G24   30.10S
ORD            SUNNY     62  39  42 NW10      30.10F
6HR MIN TEMP:  34; 6HR MAX TEMP:  63;

$$

NEZ041-046>049-061>064-073>077-083>087-211900-
SOUTH CENTRAL NEBRASKA

CITY           SKY/WX    TMP DP  RH WIND       PRES   REMARKS
GRAND ISLAND   SUNNY     63  42  46 NW7       30.13F
6HR MIN TEMP:  39; 6HR MAX TEMP:  63;

AURORA         SUNNY     61  42  48 W12G22    30.13F
HASTINGS       SUNNY     65  38  36 W14G33    30.15S
6HR MIN TEMP:  39; 6HR MAX TEMP:  65;

KEARNEY *      PTSUNNY   64  39  39 W12G20    30.14F
$$

NEZ011>018-030>034-042>045-211900-
NORTHEAST NEBRASKA

CITY           SKY/WX    TMP DP  RH WIND       PRES   REMARKS
NORFOLK        SUNNY     59  39  47 NW22G32   30.06F
6HR MIN TEMP:  42; 6HR MAX TEMP:  59;

ALBION         SUNNY     61  40  45 NW10G20   30.11R
BLAIR          PTSUNNY   57  44  62 W13G25    30.08F
FREMONT        MOSUNNY   59  44  57 W22G28    30.10S
TEKAMAH        CLOUDY    54  42  64 W17G28    30.08S
6HR MIN TEMP:  45; 6HR MAX TEMP:  55;

$$

NEZ050>053-065>068-078-088>093-211900-
SOUTHEAST NEBRASKA

CITY           SKY/WX    TMP DP  RH WIND       PRES   REMARKS
LINCOLN        SUNNY     63  40  42 W16G22    30.13S
6HR MIN TEMP:  44; 6HR MAX TEMP:  63;

OMAHA EPPLEY   PTSUNNY   59  41  51 NW18G25   30.08F
6HR MIN TEMP:  46; 6HR MAX TEMP:  60;

BEATRICE       SUNNY     63  45  51 W14       30.14S
FALLS CITY     SUNNY     62  43  49 W17G28    30.12F
6HR MIN TEMP:  43; 6HR MAX TEMP:  62;

NEBRASKA CITY  SUNNY     60  37  42 W21G26    30.12S
$$

NEZ044-045-051>053-067-211900-
OMAHA AREA

CITY           SKY/WX    TMP DP  RH WIND       PRES   REMARKS
OMAHA EPPLEY   PTSUNNY   59  41  51 NW18G25   30.08F
6HR MIN TEMP:  46; 6HR MAX TEMP:  60;

BLAIR          PTSUNNY   57  44  62 W13G25    30.08F
FREMONT        MOSUNNY   59  44  57 W22G28    30.10S
OFFUTT AFB     MOSUNNY   59  42  53 W21G26    30.08F
WAHOO          FAIR      59  42  53 W17G24    30.10S
$$




USA.gov is the U.S. government's official web portal to all federal, state and local government web resources and services.